Change the Weather History Date:

Monday, October 22, 2012

  Actual Average Record
Temperature  
Mean Temperature 76 °F -  
Max Temperature 91 °F 84 °F 100 °F (2003)
Min Temperature 60 °F 55 °F 48 °F (1996)
Cooling Degree Days 10    
Growing Degree Days 26 (Base 50)    
Moisture  
Dew Point 55 °F    
Average Humidity 49    
Maximum Humidity 73    
Minimum Humidity 18    
Precipitation  
Precipitation 0.00 in - - ()
Sea Level Pressure  
Sea Level Pressure 29.87 in    
Wind  
Wind Speed 1 mph ()    
Max Wind Speed 7 mph    
Max Gust Speed -    
Visibility 9.3 miles    
Events      
Averages and records for this station are not official NWS values.
T = Trace of Precipitation, MM = Missing Value Source: Averaged Metar Reports

Daily Weather History Graph

Daily Weather History Graph

Search for Another Location

Airport or City:

Trip Planner

Search our weather history database for the weather conditions in past years. The results will help you decide how hot, cold, wet, or windy it might be!

Date:

Astronomy

Oct. 22, 2012 Rise Set
Actual Time 7:30 AM MDT 6:46 PM MDT
Civil Twilight 7:06 AM MDT 7:10 PM MDT
Nautical Twilight 6:38 AM MDT 7:38 PM MDT
Astronomical Twilight 6:10 AM MDT 8:05 PM MDT
Moon 2:27 PM MDT (10/22) 12:52 AM MDT (10/22)
Length of Visible Light 12h 04m
Length of Day
11h 16m
First Quarter, 57% of the Moon is Illuminated
Oct 22
First Quarter
Oct 29
Full
Nov 6
Last Quarter
Nov 13
New
Nov 20
First Quarter

Hourly Weather History & Observations

Time (MDT) Temp. Heat Index Dew Point Humidity Pressure Visibility Wind Dir Wind Speed Gust Speed Precip Events Conditions
12:42 AM 69.8 °F - 57.2 °F 64% 29.87 in 10.0 mi Calm Calm - N/A   Clear
1:43 AM 68.0 °F - 57.2 °F 68% 29.86 in 10.0 mi Calm Calm - N/A   Clear
2:30 AM 68 °F - 54 °F 52% 29.85 in 5 mi NE 2.2 mph - -  
2:40 AM 69.8 °F - 57.2 °F 64% 29.84 in 10.0 mi Calm Calm - N/A   Clear
3:40 AM 68.0 °F - 57.2 °F 68% 29.87 in 10.0 mi Calm Calm - N/A   Clear
5:30 AM 62 °F - 53 °F 66% 29.86 in 5 mi ENE 2.2 mph - -  
5:49 AM 66.2 °F - 57.2 °F 73% 29.84 in 10.0 mi Calm Calm - N/A   Clear
6:40 AM 68.0 °F - 55.4 °F 64% 29.89 in 10.0 mi Calm Calm - N/A   Clear
7:40 AM 66.2 °F - 55.4 °F 68% 29.90 in 10.0 mi East 4.6 mph - N/A   Clear
8:35 AM 66 °F - 53 °F 53% 29.91 in 7 mi NE 2.2 mph - -  
8:44 AM 71.6 °F - 55.4 °F 57% 29.91 in 10.0 mi ESE 4.6 mph - N/A   Clear
9:50 AM 77.0 °F - 57.2 °F 50% 29.94 in 10.0 mi Calm Calm - N/A   Clear
10:44 AM 80.6 °F 80.5 °F 55.4 °F 42% 29.94 in 10.0 mi Calm Calm - N/A   Clear
11:48 AM 84.2 °F 82.8 °F 53.6 °F 35% 29.89 in 10.0 mi SE 4.6 mph - N/A   Clear
11:50 AM 82 °F - 54 °F 27% 29.92 in 7 mi NE 2.2 mph - -  
12:42 PM 86.0 °F 84.2 °F 53.6 °F 33% 29.92 in 10.0 mi Calm Calm - N/A   Clear
1:50 PM 87.8 °F - 51.8 °F 29% 29.89 in 10.0 mi Calm Calm - N/A   Clear
2:43 PM 89.6 °F - 50.0 °F 26% 29.83 in 10.0 mi South 4.6 mph - N/A   Clear
2:45 PM 90 °F - 52 °F 18% 29.82 in 7 mi SE 2.2 mph - -  
3:48 PM 91.4 °F - 50.0 °F 24% 29.84 in 10.0 mi WSW 6.9 mph - N/A   Clear
4:41 PM 91.4 °F - 48.2 °F 23% 29.84 in 10.0 mi Calm Calm - N/A   Clear
5:49 PM 91.4 °F - 50.0 °F 24% 29.79 in 10.0 mi WSW 5.8 mph - N/A   Clear
6:50 PM 86.0 °F - 51.8 °F 31% 29.84 in 10.0 mi SW 4.6 mph - N/A   Clear
7:48 PM 82.4 °F 82.5 °F 59.0 °F 45% 29.86 in 10.0 mi SW 6.9 mph - N/A   Clear
8:44 PM 77.0 °F - 60.8 °F 57% 29.85 in 10.0 mi Calm Calm - N/A   Clear
9:40 PM 75.2 °F - 62.6 °F 65% 29.87 in 10.0 mi Calm Calm - N/A   Clear
10:42 PM 73.4 °F - 60.8 °F 65% 29.89 in 10.0 mi Calm Calm - N/A   Clear
11:40 PM 71.6 °F - 60.8 °F 69% 29.84 in 10.0 mi Calm Calm - N/A   Clear